Location: Arcadia
(34.1397°N, 118.0353°W)
Time: 22:10:57
(UTC+00:00)

SL-16 R/B - Pass Details

Date: 08 September 2024
Orbit: 985 x 1006 km, 99.7° (Epoch: 13 October)

Event Time Altitude Azimuth Distance (km) Brightness Sun altitude
Exits shadow 12:28:58 13° 285° (WNW) 2,576 4.2 -13.4°
Drops below altitude 10° 12:30:16 10° 297° (WNW) 2,763 4.4 -13.1°
Sets 12:34:14 0° 322° (NW) 3,723 5.3 -12.3°
